This is the latest recevied weather packets stored in our database for station/object N4HAC. If no packets are shown the sender has not sent any weather packets the latest 10 day(s).
| Time | Temp. | Humidity | Pressure | Rain* | Wind** | Luminosity | Snow |
|---|---|---|---|---|---|---|---|
| 1777787374 | 6.67° C | 64% | 1009 hPa | 0 mm | - | 0 W/m² | - |
| 1777787070 | 6.67° C | 63% | 1009.4 hPa | 0 mm | - | 0 W/m² | - |
| 1777786768 | 6.67° C | 63% | 1009.1 hPa | 0 mm | - | 0 W/m² | - |
| 1777786466 | 6.67° C | 63% | 1009.2 hPa | 0 mm | - | 0 W/m² | - |
| 1777786162 | 7.22° C | 62% | 1009.4 hPa | 0 mm | - | 0 W/m² | - |
| 1777785860 | 7.22° C | 64% | 1009.2 hPa | 0 mm | - | 0 W/m² | - |
| 1777785556 | 7.22° C | 61% | 1009.2 hPa | 0 mm | - | 0 W/m² | - |
| 1777785252 | 7.22° C | 61% | 1009.1 hPa | 0 mm | - | 0 W/m² | - |
| 1777784949 | 7.22° C | 61% | 1009.4 hPa | 0 mm | - | 0 W/m² | - |
| 1777784645 | 7.22° C | 62% | 1009.4 hPa | 0 mm | - | 0 W/m² | - |
| 1777784343 | 7.22° C | 60% | 1009.1 hPa | 0 mm | - | 0 W/m² | - |
| 1777784040 | 7.22° C | 61% | 1009.4 hPa | 0 mm | - | 0 W/m² | - |
| 1777783736 | 7.22° C | 61% | 1009.4 hPa | 0 mm | - | 0 W/m² | - |
| 1777783434 | 7.78° C | 60% | 1009.2 hPa | 0 mm | - | 0 W/m² | - |
| 1777783131 | 7.78° C | 60% | 1009.6 hPa | 0 mm | - | 0 W/m² | - |
| 1777782828 | 7.78° C | 59% | 1009.5 hPa | 0 mm | - | 0 W/m² | - |
| 1777782524 | 7.78° C | 58% | 1009.4 hPa | 0 mm | - | 0 W/m² | - |
| 1777782221 | 7.78° C | 58% | 1009.4 hPa | 0 mm | - | 0 W/m² | - |
| 1777781916 | 7.78° C | 58% | 1009.4 hPa | 0 mm | - | 0 W/m² | - |
| 1777781614 | 7.78° C | 57% | 1009.4 hPa | 0 mm | - | 0 W/m² | - |
| 1777781312 | 8.33° C | 57% | 1009.1 hPa | 0 mm | - | 0 W/m² | - |
| 1777781009 | 8.33° C | 57% | 1009.2 hPa | 0 mm | - | 0 W/m² | - |
| 1777780706 | 8.33° C | 58% | 1009.1 hPa | 0 mm | - | 0 W/m² | - |
| 1777780403 | 8.33° C | 57% | 1009 hPa | 0 mm | - | 0 W/m² | - |
| 1777780100 | 8.33° C | 57% | 1009.2 hPa | 0 mm | - | 0 W/m² | - |
* Rain latest hour (hover to see other rain measurements)
** Current wind speed in m/s (hover to see current wind gust speed)